#timestamp,LO_Frequency,Hit,StdDev 
1509206415.2,286046998.9,N
1509206435.1,286047000.8,N
1509206436.0,286047000.8,N
1509206455.8,286046998.6,N
1509206475.7,286046998.8,N
1509206495.5,286046998.1,N
1509206515.3,286047000.4,N
1509206535.2,286047001.2,N
1509206555.0,286046998.5,N
1509206555.9,286046998.5,N
1509206575.7,286047001.2,N
1509206595.6,286046998.2,N
1509206615.4,286046998.2,N
1509206635.3,286047000.8,N
1509206655.1,286047001.1,N
1509206656.0,286047001.1,N
1509206675.8,286047000.6,N
1509206695.7,286046999.0,N
1509206715.5,286046999.2,N
1509206735.3,286046998.3,N
1509206755.2,286046999.2,N
1509206775.0,286046998.8,N
1509206775.9,286046998.8,N
1509206795.8,286046997.1,N
1509206815.6,286046997.6,N
1509206835.4,286046996.8,N
1509206855.3,286046997.7,N
1509206875.1,286046993.3,Y
1509206895.9,286046993.3,P
1509206915.7,286046997.8,N
1509206935.5,286046997.3,N
1509206955.4,286046996.6,N
1509206975.2,286046997.0,N
1509206995.0,286046999.6,N
1509206996.0,286046999.6,N
1509207015.8,286046997.0,N
1509207035.6,286046998.3,N
1509207055.5,286046998.4,N
1509207075.3,286046999.0,N
1509207095.1,286046996.7,N
1509207115.9,286046997.0,N
1509207135.7,286046999.1,N
1509207155.6,286046997.3,N
1509207175.4,286046996.8,N
1509207195.2,286046999.5,N
1509207215.1,286047001.2,N
1509207216.0,286047001.2,N
1509207235.8,286046999.3,N
1509207255.6,286046999.5,N
1509207275.5,286046999.2,N
1509207295.3,286046996.7,N
1509207315.2,286046996.5,N
1509207335.9,286046998.7,N
1509207355.7,286047000.7,N
1509207375.6,286047001.0,N
1509207395.4,286047000.8,N
1509207415.3,286047001.2,N
1509207435.1,286046998.8,N
1509207436.0,286046998.8,N
1509207455.8,286047001.1,N
1509207475.7,286046998.5,N
1509207495.5,286046998.1,N
1509207515.3,286046998.8,N
1509207535.2,286047000.9,N
1509207555.0,286047000.5,N
1509207555.9,286047000.5,N
1509207575.8,286046998.2,N
1509207595.6,286046998.5,N
1509207615.4,286046998.6,N
1509207635.3,286046998.1,N
1509207655.1,286046998.9,N
1509207675.8,286046996.5,N
1509207695.7,286047001.1,N
1509207715.5,286046998.6,N
1509207735.4,286046999.0,N
1509207755.2,286046998.7,N
1509207775.0,286046996.8,N
1509207775.9,286046996.8,N
1509207795.8,286046997.7,N
1509207815.6,286046996.8,N
1509207835.5,286046997.0,N
1509207855.3,286046996.6,N
1509207875.1,286046999.4,N
1509207895.9,286046997.0,N
1509207915.7,286046997.1,N
1509207935.5,286046996.5,N
1509207955.4,286046998.1,N
1509207975.2,286047000.6,N
1509207995.1,286047000.6,N
1509207996.0,286047000.6,N
1509208015.8,286047000.4,N
1509208035.6,286046999.9,N
1509208055.5,286047000.9,N
1509208075.3,286047000.9,N
1509208095.1,286047002.8,N
1509208115.9,286047002.6,N
1509208135.7,286047000.6,N
1509208155.6,286046998.2,N
1509208175.4,286046998.7,N
1509208195.2,286046998.5,N
1509208215.1,286046998.9,N
1509208216.0,286046998.9,N
1509208235.8,286046998.9,N
1509208255.7,286046997.2,N
1509208275.5,286046996.2,N
1509208295.3,286046995.1,N
1509208315.2,286046996.1,N
1509208335.0,286046995.1,N
1509208335.9,286046995.1,N
1509208355.7,286046997.3,N
1509208375.6,286046996.5,N
1509208395.4,286046996.9,N
1509208415.3,286046999.3,N
1509208435.1,286046996.6,N
1509208436.0,286046996.6,N
1509208455.8,286047001.2,N
1509208475.7,286046998.3,N
1509208495.5,286046996.5,N
1509208515.4,286046997.0,N
1509208535.2,286046999.4,N
1509208555.0,286046996.7,N
1509208555.9,286046996.7,N
1509208575.8,286046999.2,N
1509208595.6,286046998.8,N
1509208615.4,286046998.6,N
1509208635.3,286046999.4,N
1509208655.1,286046999.0,N
1509208675.9,286046998.8,N
1509208695.7,286046998.4,N
1509208715.5,286047001.1,N
1509208735.4,286046998.7,N
1509208755.2,286046999.5,N
1509208775.0,286046996.6,N
1509208775.9,286046996.6,N
1509208795.8,286046997.9,N
1509208815.6,286046994.9,Y
1509208835.5,286046998.7,P
1509208855.3,286046998.1,P
1509208875.1,286047001.1,N
1509208895.9,286047000.5,N
1509208915.7,286047000.3,N
1509208935.5,286047000.6,N
1509208955.4,286047001.0,N
1509208975.2,286047001.2,N
1509208995.1,286047000.9,N
1509208996.0,286047000.9,N
1509209015.8,286047000.5,N
1509209035.6,286046998.4,N
1509209055.5,286046998.8,N
1509209075.3,286046999.1,N
1509209095.1,286046998.7,N
1509209115.9,286046999.4,N
1509209135.7,286046997.8,N
1509209155.6,286046999.6,N
1509209175.4,286046998.5,N
1509209195.2,286046999.2,N
1509209215.1,286046995.3,Y
1509209216.0,286046995.3,P
1509209235.8,286046995.1,N
1509209255.7,286046995.4,N
1509209275.5,286046997.3,N
1509209295.3,286046999.2,N
1509209315.2,286046997.4,N
1509209335.0,286046996.7,N
1509209335.9,286046996.7,N
1509209355.7,286046999.3,N
1509209375.6,286046999.4,N
1509209395.4,286046999.5,N
1509209415.3,286046999.0,N
1509209435.1,286046997.8,N
1509209436.0,286046997.8,N
1509209455.8,286046997.3,N
1509209475.7,286046998.0,N
1509209495.5,286046994.9,Y
1509209515.4,286046999.3,P
1509209535.2,286047000.9,N
1509209555.0,286047000.0,N
1509209555.9,286047000.0,N
1509209575.8,286047002.5,N
1509209595.6,286047004.4,N
1509209615.4,286047002.1,N
1509209635.3,286047002.4,N
1509209655.1,286047000.7,N
1509209675.9,286047000.2,N
1509209695.7,286046998.8,N
1509209715.5,286046998.4,N
1509209735.4,286046998.3,N
1509209755.2,286046998.8,N
1509209775.0,286046998.6,N
1509209775.9,286046998.6,N
1509209795.8,286046999.1,N
1509209815.6,286046999.5,N
1509209835.5,286047001.0,N
1509209855.3,286047001.1,N
1509209875.1,286047000.5,N
1509209895.9,286047002.8,N
1509209915.7,286047002.7,N
1509209935.5,286047001.9,N
1509209955.4,286047001.7,N
1509209975.2,286047002.2,N
1509209995.1,286047002.2,N
1509210026.0,286047000.3,E
